User: anonymous   Login
Location: Carlisle
(34.5501°N, 84.5969°W)
Time: 23:19:00
(UTC+00:00)
Language:

Hubble Space Telescope - Orbit

View from above orbital plane
View from above orbital plane
View from above satellite
View from above satellite

Ground track
Ground track

The orbit data is extracted from the following two-line orbital elements,

1 20580U 90037B   22018.55553238  .00001554  00000-0  82423-4 0  9991
2 20580  28.4707  81.5357 0002441 215.2698 254.7217 15.09950838543534
Epoch (UTC): 18 January 2022 13:19:57
Eccentricity: 0.0002441
inclination: 28.4707°
perigee height: 534 km
apogee height: 538 km
right ascension of ascending node: 81.5357°
argument of perigee: 215.2698°
revolutions per day: 15.09950838
mean anomaly at epoch: 254.7217°
orbit number at epoch: 54353

The dashed part of the orbit path shows where the satellite is in the earth's shadow,  

DLR